KC0AFB Weather Reports


time (UTC)temp
C
wind
direction
speed
KPH
gust
KPH
rain 1hr
cm
rain 24hr
cm
rain mn
cm
humidity
%
barometer
mb
20260503010027 17 298 14.5 16.1 0.00 0.00 0.00 42 1010.9
20260503005523 17 331 16.1 20.9 0.00 0.00 0.00 42 1010.8
20260503005021 17 325 9.7 17.7 0.00 0.00 0.00 42 1010.7
20260503004517 18 308 11.3 14.5 0.00 0.00 0.00 41 1010.8
20260503004015 18 298 11.3 14.5 0.00 0.00 0.00 41 1010.6
20260503003511 18 295 14.5 17.7 0.00 0.00 0.00 41 1010.6
20260503003009 18 327 20.9 29.0 0.00 0.00 0.00 40 1010.3
20260503002506 18 288 22.5 32.2 0.00 0.00 0.00 40 1010.5
20260503002002 18 302 12.9 14.5 0.00 0.00 0.00 40 1010.7
20260503001459 18 306 17.7 24.1 0.00 0.00 0.00 40 1010.5
20260503000956 18 314 20.9 27.4 0.00 0.00 0.00 39 1010.5
20260503000454 18 328 27.4 35.4 0.00 0.00 0.00 39 1010.6
20260502235950 19 340 24.1 29.0 0.00 0.00 0.00 39 1010.6
20260502235447 19 311 25.7 29.0 0.00 0.00 0.00 39 1010.8
20260502234945 19 333 22.5 27.4 0.00 0.00 0.00 39 1010.6
20260502234441 20 303 19.3 24.1 0.00 0.00 0.00 39 1010.6
20260502233938 20 327 19.3 22.5 0.00 0.00 0.00 38 1010.5
20260502233433 20 316 27.4 35.4 0.00 0.00 0.00 38 1010.7
20260502232931 20 327 22.5 27.4 0.00 0.00 0.00 39 1010.3
20260502232427 20 331 22.5 27.4 0.00 0.00 0.00 38 1010.4
20260502231924 20 304 17.7 25.7 0.00 0.00 0.00 38 1010.3
20260502231421 20 326 14.5 16.1 0.00 0.00 0.00 38 1010.2
20260502230919 20 337 25.7 33.8 0.00 0.00 0.00 37 1010.1
20260502230417 20 291 32.2 40.2 0.00 0.00 0.00 36 1010.2
20260502225915 20 306 30.6 35.4 0.00 0.00 0.00 35 1010.2
20260502225411 20 352 16.1 20.9 0.00 0.00 0.00 35 1010.2
20260502224908 20 306 30.6 37.0 0.00 0.00 0.00 34 1010.2
20260502224403 20 279 17.7 22.5 0.00 0.00 0.00 34 1010.0
20260502223901 20 291 24.1 32.2 0.00 0.00 0.00 34 1010.3
20260502223358 20 299 20.9 29.0 0.00 0.00 0.00 34 1010.0
20260502222856 20 329 19.3 27.4 0.00 0.00 0.00 34 1010.1
20260502222348 20 319 14.5 20.9 0.00 0.00 0.00 34 1010.2
20260502221843 20 305 22.5 27.4 0.00 0.00 0.00 34 1010.1
20260502221340 20 288 27.4 33.8 0.00 0.00 0.00 34 1010.0
20260502220837 20 328 19.3 25.7 0.00 0.00 0.00 35 1010.0
20260502220333 20 305 24.1 32.2 0.00 0.00 0.00 36 1010.2
20260502215830 21 337 27.4 35.4 0.00 0.00 0.00 36 1010.1
20260502215328 21 347 27.4 46.7 0.00 0.00 0.00 36 1010.1
20260502214824 21 307 27.4 35.4 0.00 0.00 0.00 34 1010.0
20260502214320 21 305 20.9 25.7 0.00 0.00 0.00 34 1009.9
20260502213818 21 295 14.5 16.1 0.00 0.00 0.00 34 1009.8
20260502213315 21 316 22.5 27.4 0.00 0.00 0.00 34 1009.9
20260502212814 21 309 24.1 27.4 0.00 0.00 0.00 34 1010.0
20260502212312 21 321 20.9 24.1 0.00 0.00 0.00 34 1010.0
20260502211808 21 315 24.1 33.8 0.00 0.00 0.00 34 1010.0
20260502211258 21 293 24.1 32.2 0.00 0.00 0.00 33 1009.9
20260502210755 21 307 29.0 40.2 0.00 0.00 0.00 33 1010.0
20260502210253 21 335 24.1 33.8 0.00 0.00 0.00 32 1009.9
20260502205750 21 313 33.8 46.7 0.00 0.00 0.00 31 1010.1
20260502205240 21 324 27.4 35.4 0.00 0.00 0.00 31 1009.9
20260502204738 21 307 20.9 27.4 0.00 0.00 0.00 33 1009.9
20260502204234 21 274 25.7 32.2 0.00 0.00 0.00 31 1010.1
20260502203726 21 271 20.9 25.7 0.00 0.00 0.00 32 1010.1
20260502203224 21 281 30.6 35.4 0.00 0.00 0.00 32 1010.2
20260502202718 21 296 16.1 22.5 0.00 0.00 0.00 34 1010.3
20260502202217 20 309 19.3 27.4 0.00 0.00 0.00 36 1010.2
20260502201714 21 302 24.1 32.2 0.00 0.00 0.00 35 1010.3
20260502201210 21 312 19.3 24.1 0.00 0.00 0.00 37 1010.3
20260502200705 21 341 24.1 27.4 0.00 0.00 0.00 37 1010.3
20260502200203 21 282 25.7 29.0 0.00 0.00 0.00 37 1010.6
20260502195701 20 287 24.1 29.0 0.00 0.00 0.00 37 1010.6
20260502195157 21 313 16.1 17.7 0.00 0.00 0.00 37 1010.3
20260502194654 21 332 27.4 33.8 0.00 0.00 0.00 35 1010.6
20260502194150 21 292 20.9 27.4 0.00 0.00 0.00 37 1010.7
20260502193646 21 314 16.1 22.5 0.00 0.00 0.00 38 1010.6
20260502193139 21 292 22.5 27.4 0.00 0.00 0.00 37 1010.7
20260502192633 20 291 24.1 27.4 0.00 0.00 0.00 38 1010.6
20260502192131 21 328 16.1 20.9 0.00 0.00 0.00 36 1010.8
20260502191628 21 328 17.7 22.5 0.00 0.00 0.00 38 1010.9
20260502191126 21 325 17.7 22.5 0.00 0.00 0.00 37 1011.1
20260502190623 20 326 14.5 20.9 0.00 0.00 0.00 38 1010.7
20260502190120 20 307 9.7 11.3 0.00 0.00 0.00 38 1010.8
20260502185614 21 334 19.3 22.5 0.00 0.00 0.00 36 1010.9
20260502185112 20 357 19.3 22.5 0.00 0.00 0.00 37 1011.1
20260502184609 20 0 14.5 17.7 0.00 0.00 0.00 39 1011.1
20260502184104 20 329 14.5 16.1 0.00 0.00 0.00 39 1011.1
20260502183600 20 348 16.1 22.5 0.00 0.00 0.00 37 1011.3
20260502183057 20 317 12.9 14.5 0.00 0.00 0.00 40 1011.3
20260502182552 20 330 11.3 12.9 0.00 0.00 0.00 39 1011.1
20260502182048 20 314 8.0 11.3 0.00 0.00 0.00 40 1011.5
20260502181546 20 293 17.7 20.9 0.00 0.00 0.00 39 1011.5
20260502181044 20 310 17.7 20.9 0.00 0.00 0.00 39 1011.3
20260502180541 19 273 8.0 9.7 0.00 0.00 0.00 39 1011.7
20260502170454 17 219 17.7 17.7 0.00 0.00 0.00 41 1012.2
20260502163937 17 289 12.9 14.5 0.00 0.00 0.00 41 1012.4
20260502163434 17 293 14.5 17.7 0.00 0.00 0.00 39 1012.2
20260502162931 17 281 14.5 20.9 0.00 0.00 0.00 43 1012.2
20260502162429 17 232 16.1 22.5 0.00 0.00 0.00 40 1012.2
20260502161926 17 213 17.7 20.9 0.00 0.00 0.00 40 1012.2
20260502161421 16 242 17.7 24.1 0.00 0.00 0.00 40 1012.2
20260502160919 17 230 19.3 24.1 0.00 0.00 0.00 40 1012.2
20260502160417 16 193 14.5 16.1 0.00 0.00 0.00 41 1012.4
20260502151856 15 211 12.9 17.7 0.00 0.00 0.00 46 1012.6
20260502151352 15 206 16.1 17.7 0.00 0.00 0.00 45 1012.6
20260502150850 13 189 11.3 14.5 0.00 0.00 0.00 47 1012.9
20260502150346 13 204 12.9 22.5 0.00 0.00 0.00 48 1012.9
20260502130734 8 151 3.2 3.2 0.00 0.00 0.00 58 1015.6
20260502130232 8 173 1.6 1.6 0.00 0.00 0.00 56 1015.8
20260502123718 8 205 8.0 9.7 0.00 0.00 0.00 54 1015.4
20260502123214 8 222 12.9 14.5 0.00 0.00 0.00 54 1015.1
20260502122711 8 223 8.0 11.3 0.00 0.00 0.00 55 1015.4
20260502122207 7 214 9.7 9.7 0.00 0.00 0.00 55 1015.6
20260502121706 7 179 9.7 11.3 0.00 0.00 0.00 55 1015.8
20260502121203 7 201 8.0 9.7 0.00 0.00 0.00 56 1015.5
20260502120659 7 188 8.0 12.9 0.00 0.00 0.00 56 1015.7
20260502120156 7 207 6.4 8.0 0.00 0.00 0.00 56 1015.8
20260502115654 7 206 6.4 9.7 0.00 0.00 0.00 56 1015.7
20260502115150 7 215 8.0 11.3 0.00 0.00 0.00 56 1015.9
20260502114646 7 201 9.7 11.3 0.00 0.00 0.00 57 1015.9
20260502114144 6 174 4.8 4.8 0.00 0.00 0.00 58 1016.0
20260502113641 6 201 4.8 4.8 0.00 0.00 0.00 58 1015.9
20260502113139 6 213 4.8 4.8 0.00 0.00 0.00 58 1016.1
20260502112636 6 194 4.8 4.8 0.00 0.00 0.00 59 1016.2
20260502112128 6 192 3.2 3.2 0.00 0.00 0.00 59 1016.2
20260502111625 5 222 8.0 9.7 0.00 0.00 0.00 59 1016.2
20260502111123 5 197 1.6 3.2 0.00 0.00 0.00 62 1016.2
20260502110620 5 180 1.6 1.6 0.00 0.00 0.00 61 1016.3
20260502110117 5 181 3.2 4.8 0.00 0.00 0.00 61 1016.3
20260502105615 5 184 3.2 3.2 0.00 0.00 0.00 61 1016.4
20260502105112 5 171 1.6 1.6 0.00 0.00 0.00 60 1016.4
20260502104609 6 204 1.6 1.6 0.00 0.00 0.00 59 1016.3
20260502104106 5 196 1.6 1.6 0.00 0.00 0.00 59 1016.4
20260502103604 5 170 1.6 1.6 0.00 0.00 0.00 60 1016.4
20260502103102 5 155 0.0 1.6 0.00 0.00 0.00 60 1016.1
20260502102558 5 177 1.6 1.6 0.00 0.00 0.00 60 1016.3
20260502102055 5 175 1.6 1.6 0.00 0.00 0.00 60 1016.1
20260502101553 5 192 1.6 1.6 0.00 0.00 0.00 60 1016.3
20260502101051 5 198 3.2 3.2 0.00 0.00 0.00 60 1016.4
20260502100549 5 168 1.6 1.6 0.00 0.00 0.00 60 1016.4
20260502091524 5 133 0.0 0.0 0.00 0.00 0.00 61 1016.1
20260502091021 5 247 3.2 3.2 0.00 0.00 0.00 61 1016.6
20260502090518 5 178 1.6 1.6 0.00 0.00 0.00 60 1016.4
20260502071407 6 198 1.6 1.6 0.00 0.00 0.00 57 1017.5
20260502070905 6 189 1.6 1.6 0.00 0.00 0.00 57 1017.8
20260502070402 6 249 1.6 3.2 0.00 0.00 0.00 56 1017.6
20260502065901 6 181 1.6 1.6 0.00 0.00 0.00 56 1017.8
20260502065359 6 277 1.6 1.6 0.00 0.00 0.00 56 1017.7
20260502064856 6 177 1.6 1.6 0.00 0.00 0.00 56 1017.6
20260502064354 7 164 1.6 1.6 0.00 0.00 0.00 55 1017.5
20260502063851 6 208 1.6 1.6 0.00 0.00 0.00 55 1017.8
20260502063349 6 160 1.6 1.6 0.00 0.00 0.00 56 1017.8
20260502062846 7 169 1.6 1.6 0.00 0.00 0.00 55 1017.7
20260502062343 7 251 3.2 3.2 0.00 0.00 0.00 55 1017.9
20260502061842 7 207 4.8 4.8 0.00 0.00 0.00 55 1017.9
20260502061340 7 166 0.0 1.6 0.00 0.00 0.00 55 1018.0
20260502060835 7 203 1.6 3.2 0.00 0.00 0.00 54 1017.8
20260502060330 7 209 4.8 4.8 0.00 0.00 0.00 53 1017.9
20260502055828 7 210 4.8 4.8 0.00 0.00 0.00 53 1018.0
20260502055326 8 225 4.8 4.8 0.00 0.00 0.00 52 1017.9
20260502054825 7 218 3.2 3.2 0.00 0.00 0.00 52 1017.7
20260502054323 7 164 1.6 1.6 0.00 0.00 0.00 52 1017.8
20260502053820 7 154 3.2 3.2 0.00 0.00 0.00 52 1018.0
20260502053317 7 181 3.2 3.2 0.00 0.00 0.00 52 1017.9
20260502052815 7 143 0.0 0.0 0.00 0.00 0.00 52 1018.0
20260502052313 7 176 1.6 1.6 0.00 0.00 0.00 52 1018.0
20260502051810 8 164 1.6 1.6 0.00 0.00 0.00 51 1018.1
20260502051309 8 174 1.6 3.2 0.00 0.00 0.00 51 1018.0
20260502050804 8 176 4.8 4.8 0.00 0.00 0.00 51 1018.1
20260502050301 7 147 0.0 1.6 0.00 0.00 0.00 52 1018.1
20260502045758 8 210 3.2 3.2 0.00 0.00 0.00 51 1018.1
20260502045255 8 175 1.6 1.6 0.00 0.00 0.00 51 1018.2
20260502044752 8 198 1.6 1.6 0.00 0.00 0.00 51 1018.5
20260502044248 8 162 1.6 1.6 0.00 0.00 0.00 50 1018.6
20260502043745 8 240 4.8 4.8 0.00 0.00 0.00 49 1018.3
20260502043243 8 153 1.6 3.2 0.00 0.00 0.00 49 1018.3
20260502042742 8 227 1.6 3.2 0.00 0.00 0.00 49 1018.3
20260502042240 9 184 3.2 3.2 0.00 0.00 0.00 49 1018.3
20260502041737 9 241 4.8 4.8 0.00 0.00 0.00 49 1018.6
20260502041234 9 237 1.6 3.2 0.00 0.00 0.00 49 1018.6
20260502040731 9 223 3.2 3.2 0.00 0.00 0.00 48 1018.3
20260502040228 9 216 3.2 3.2 0.00 0.00 0.00 48 1018.2
20260502035724 9 144 1.6 1.6 0.00 0.00 0.00 48 1018.5
20260502035221 10 178 1.6 3.2 0.00 0.00 0.00 47 1018.3
20260502034718 10 198 3.2 3.2 0.00 0.00 0.00 46 1018.2
20260502034217 10 234 6.4 8.0 0.00 0.00 0.00 45 1018.7
20260502033714 10 212 6.4 8.0 0.00 0.00 0.00 45 1018.5
20260502033212 10 218 4.8 4.8 0.00 0.00 0.00 46 1018.1
20260502032708 10 182 1.6 3.2 0.00 0.00 0.00 47 1018.6
20260502032204 10 194 4.8 8.0 0.00 0.00 0.00 46 1018.3
20260502031703 11 204 4.8 4.8 0.00 0.00 0.00 45 1018.6
20260502031200 11 170 4.8 4.8 0.00 0.00 0.00 45 1018.3
20260502030659 11 202 3.2 3.2 0.00 0.00 0.00 44 1018.3
20260502030156 11 194 4.8 4.8 0.00 0.00 0.00 44 1018.3
20260502025653 11 153 3.2 3.2 0.00 0.00 0.00 44 1018.3
20260502025151 11 146 1.6 1.6 0.00 0.00 0.00 44 1018.5
20260502024649 11 186 3.2 3.2 0.00 0.00 0.00 44 1018.2
20260502024147 11 179 3.2 4.8 0.00 0.00 0.00 44 1018.5
20260502023644 11 195 3.2 3.2 0.00 0.00 0.00 44 1018.3
20260502023141 11 117 0.0 0.0 0.00 0.00 0.00 43 1018.2
20260502022638 11 141 1.6 1.6 0.00 0.00 0.00 43 1018.2
20260502022135 11 157 1.6 1.6 0.00 0.00 0.00 42 1018.2
20260502021633 11 212 3.2 4.8 0.00 0.00 0.00 42 1018.2
20260502021130 12 210 4.8 4.8 0.00 0.00 0.00 42 1018.1
20260502020627 12 208 3.2 3.2 0.00 0.00 0.00 42 1018.0
20260502020124 12 191 1.6 1.6 0.00 0.00 0.00 42 1018.2
20260502015622 12 172 1.6 1.6 0.00 0.00 0.00 42 1018.2
20260502015118 12 202 3.2 3.2 0.00 0.00 0.00 42 1018.0
20260502014615 12 150 0.0 0.0 0.00 0.00 0.00 42 1018.2
20260502014112 13 182 1.6 1.6 0.00 0.00 0.00 42 1018.0
20260502013608 13 170 1.6 1.6 0.00 0.00 0.00 42 1018.0
20260502013104 13 180 1.6 3.2 0.00 0.00 0.00 41 1018.0
20260502012602 13 234 1.6 1.6 0.00 0.00 0.00 42 1018.2
20260502012100 14 175 1.6 1.6 0.00 0.00 0.00 42 1018.1
20260502011556 14 200 1.6 1.6 0.00 0.00 0.00 41 1018.1
20260502011052 15 228 3.2 3.2 0.00 0.00 0.00 40 1018.2
20260502010549 15 222 3.2 3.2 0.00 0.00 0.00 39 1018.1